Wind_Speed
10 10 12 13 14 14 15 16 16 16 17 17 18 17 18 18 18 17 17 18 19 19 18 19 19 20 21 21 21 19 19 20 21 21 22 24 25 26 27 27 27 27 28 29
9 10 11 12 12 13 14 15 14 15 17 18 19 18 18 19 19 18 17 17 17 18 19 19 20 19 19 18 18 18 18 19 21 22 23 24 25 27 28 28 28 27 27 28
7 8 10 11 11 11 13 14 14 14 15 16 17 17 17 18 18 18 17 16 16 16 18 18 18 19 19 18 18 19 19 20 21 22 23 25 26 27 27 28 27 27 28 28
6 8 9 10 10 11 12 12 13 13 14 14 16 17 16 17 18 18 16 16 16 17 17 18 18 18 19 19 21 20 20 20 21 22 24 25 25 26 27 28 29 29 29 28
4 6 7 8 9 9 11 12 13 14 16 15 16 17 15 16 16 16 17 17 17 17 18 19 19 18 18 19 20 20 20 20 21 23 24 25 25 26 27 28 28 28 27 28
4 5 7 7 8 9 11 13 15 16 17 18 16 18 16 16 16 16 16 15 15 16 17 18 18 17 19 20 20 20 20 21 22 22 23 24 25 25 26 26 26 26 27 27
6 6 7 8 9 10 10 12 14 15 17 17 17 18 17 17 16 16 15 14 14 16 16 18 17 19 20 20 20 20 20 21 21 22 23 24 24 24 25 25 25 25 26 26
8 8 8 9 9 10 10 12 14 16 16 16 16 18 18 17 16 15 13 13 14 15 17 17 17 18 19 19 19 20 20 21 22 22 23 23 23 23 23 25 25 25 25 24
10 10 10 10 10 10 11 12 14 16 16 16 16 17 18 18 17 16 15 15 16 17 16 17 17 18 18 17 18 19 20 20 21 21 22 22 22 23 24 25 24 24 23 22
11 10 10 12 12 12 13 14 15 16 17 17 16 16 16 16 17 17 16 16 16 17 18 17 17 18 18 17 17 18 19 19 20 20 20 21 21 23 24 24 23 23 23 23
14 13 11 13 15 14 15 16 17 18 19 19 19 17 17 17 17 16 17 17 17 18 18 17 17 18 18 17 17 18 18 19 19 20 20 20 21 23 23 23 22 22 22 22
16 15 13 13 15 15 16 17 18 19 19 20 22 20 18 19 18 17 17 17 17 17 17 16 16 17 17 16 16 17 17 18 19 20 20 20 22 22 23 22 22 22 22 22
16 15 14 12 14 16 17 18 19 20 20 21 21 21 19 19 19 19 18 17 16 16 16 16 15 15 16 16 17 17 17 18 18 19 20 20 21 22 22 21 22 21 21 21
16 16 16 15 14 15 17 18 19 21 21 21 20 20 19 19 19 19 18 17 17 17 16 15 16 16 16 17 17 17 17 17 18 19 19 19 20 21 21 21 21 21 21 22
17 18 18 16 15 16 17 17 19 19 19 20 19 19 19 19 19 18 18 18 17 17 16 16 17 16 16 17 17 16 16 17 18 18 19 19 20 21 21 21 20 21 21 21
18 19 19 17 17 18 17 17 17 17 18 18 19 19 18 18 17 17 18 17 16 16 16 16 17 16 16 17 17 16 16 17 17 18 19 19 20 21 21 21 20 20 20 20
18 19 19 18 18 18 17 15 16 17 16 17 18 18 18 17 17 17 17 17 16 16 16 17 16 16 16 16 16 15 16 17 16 17 18 19 19 20 20 20 20 19 20 20
17 18 18 18 17 17 15 16 17 16 16 16 17 17 17 16 17 17 17 18 18 17 15 15 15 15 15 15 15 16 16 16 17 18 18 18 18 19 20 19 19 18 18 19
17 18 18 18 17 16 16 16 16 17 16 17 16 16 16 16 16 17 17 17 17 15 15 14 14 14 14 14 15 14 14 15 16 16 17 16 17 18 18 17 17 17 18 19
18 18 17 17 17 17 16 16 15 16 16 16 16 16 16 16 16 15 15 15 15 14 13 13 13 12 12 12 12 13 14 14 15 15 15 15 16 16 16 16 16 17 17 17
17 17 17 17 17 15 14 14 15 16 16 16 15 15 15 16 15 15 14 14 14 13 12 12 11 11 11 12 12 13 13 14 14 14 14 14 15 16 16 15 16 17 16 16
17 18 18 17 16 13 14 14 15 15 15 15 15 15 14 13 13 13 13 13 13 12 11 11 10 11 11 11 12 12 12 13 13 13 13 14 15 15 15 15 15 15 16 15
16 17 17 16 14 13 13 13 14 14 14 14 14 14 13 12 11 11 12 12 11 10 10 10 10 9 10 10 9 10 11 12 12 12 12 12 14 13 14 14 14 15 16 15
15 15 15 14 13 14 14 13 13 13 13 12 12 11 11 11 10 10 10 9 9 8 8 8 8 9 9 8 8 9 11 11 12 11 11 12 13 13 13 14 15 15 16 15
15 15 14 14 13 13 13 13 13 12 11 10 9 9 8 8 8 7 7 7 7 7 7 7 7 7 7 7 8 9 9 10 10 11 11 11 12 13 14 14 15 15 15 15
15 14 14 12 11 11 12 11 10 10 9 8 7 6 6 5 5 5 5 5 5 6 6 6 6 5 6 6 7 7 8 8 9 10 11 11 12 13 15 15 15 15 15 16
Wind_Direction
190 195 204 210 215 219 224 227 231 235 236 241 246 256 262 262 264 267 269 273 277 280 278 279 281 284 287 284 286 287 290 292 294 297 300 301 302 303 304 302 302 303 304 304
194 200 210 214 220 223 227 231 232 233 239 244 248 256 262 264 268 275 278 277 276 278 284 284 281 284 287 286 283 286 289 292 297 300 302 302 303 303 303 303 302 303 304 304
209 215 218 222 227 233 232 235 236 238 241 244 251 256 261 264 272 277 279 280 280 278 281 280 277 279 286 290 289 287 290 292 295 299 301 303 304 304 305 305 305 304 303 304
215 225 229 233 236 241 241 244 240 246 251 250 250 258 255 263 269 275 277 279 283 281 283 284 282 283 285 288 290 290 291 293 296 299 302 304 306 305 306 306 305 305 304 304
231 240 244 246 247 250 252 253 252 252 254 258 258 262 261 262 269 274 278 279 282 282 286 287 284 282 285 290 291 290 290 294 297 301 303 306 308 307 307 307 307 305 304 304
234 245 254 253 254 262 261 256 255 255 255 259 259 261 265 267 273 276 280 283 284 285 290 292 291 290 292 293 291 290 292 298 300 302 304 307 308 309 309 308 307 306 306 307
246 246 256 260 259 256 265 266 261 257 258 261 266 265 269 270 272 276 281 283 284 286 291 295 298 298 296 295 293 293 294 298 301 303 305 308 309 309 309 309 310 309 310 312
265 253 251 252 256 262 267 273 269 268 269 269 269 269 271 270 273 278 281 281 284 288 292 295 298 299 296 294 293 293 295 299 302 305 307 308 309 310 310 312 312 313 314 315
267 263 255 255 257 262 268 268 273 274 274 276 277 277 276 273 273 279 279 283 287 291 293 296 297 297 295 292 292 294 296 300 302 304 305 307 309 311 312 313 314 315 316 317
269 268 258 256 257 258 261 268 272 277 283 288 289 286 286 280 276 278 286 290 292 292 293 296 295 296 297 297 295 297 299 302 305 305 305 307 309 311 313 314 316 315 314 315
271 268 266 258 259 266 264 267 272 278 283 287 290 296 295 287 280 280 286 290 293 294 296 297 295 297 296 296 296 300 302 304 305 306 306 308 311 313 314 315 315 314 314 315
271 269 265 260 259 265 267 270 273 276 281 284 290 296 296 291 288 286 288 288 291 290 294 297 296 298 299 298 300 303 303 304 305 306 307 310 312 314 317 314 311 311 313 315
269 269 266 262 260 260 264 271 275 278 282 284 288 293 295 294 291 290 291 287 292 294 295 294 296 301 303 305 306 306 306 307 308 307 308 309 311 314 317 315 313 313 315 317
268 267 267 266 265 265 265 269 274 280 283 285 288 291 290 289 286 287 289 288 289 291 295 297 297 298 301 303 303 305 305 306 306 307 308 310 312 313 315 315 315 315 316 317
267 267 267 267 266 265 268 270 272 277 284 285 288 291 295 290 290 288 287 289 290 291 294 296 295 295 297 303 304 304 305 305 305 306 308 310 312 313 313 315 316 317 318 318
263 266 269 272 270 269 272 275 275 276 284 287 289 294 295 292 290 288 287 291 291 292 292 293 293 292 294 299 303 302 302 304 304 305 308 311 314 315 315 315 316 318 320 321
263 267 269 271 271 270 274 278 278 282 286 291 292 297 297 291 289 290 290 293 293 290 290 289 290 288 288 294 299 301 303 304 306 307 309 311 315 317 316 316 318 320 322 323
264 266 265 268 270 271 280 281 281 284 289 289 290 291 291 289 289 291 292 293 293 291 292 291 289 287 285 290 296 299 303 306 309 310 310 314 318 320 320 319 319 323 325 325
264 267 267 268 271 276 279 284 285 287 290 291 290 289 288 289 291 292 293 293 292 288 289 289 289 288 285 289 294 300 304 308 309 312 314 317 321 323 324 325 324 325 327 329
262 264 265 267 271 274 284 284 286 291 294 297 292 290 286 288 291 292 291 292 293 291 288 285 286 286 286 290 296 302 305 309 312 313 315 317 322 324 325 327 330 331 330 333
259 260 264 268 272 275 280 281 288 292 298 297 295 292 287 288 288 290 291 292 292 291 288 284 286 288 287 292 299 303 304 309 313 316 319 319 322 323 323 326 329 333 335 336
259 260 265 266 271 275 275 281 285 290 294 294 296 296 294 294 293 291 290 290 291 288 286 286 288 290 292 295 299 303 306 311 317 319 320 322 325 326 326 328 329 332 335 337
257 261 266 270 270 271 273 278 281 285 289 294 296 295 295 293 292 290 290 290 290 284 287 287 289 294 296 298 300 306 312 317 320 323 325 328 330 329 334 336 333 334 335 336
253 255 260 260 264 267 268 274 277 284 287 293 293 291 289 288 288 290 287 288 286 284 289 288 288 295 298 300 307 313 317 319 322 326 329 330 330 330 333 335 334 334 335 334
255 256 255 256 258 261 265 271 277 283 288 291 290 287 285 285 288 289 284 282 291 291 291 291 299 299 299 304 311 311 317 322 327 330 332 333 334 335 337 335 336 337 337 337
253 251 251 256 259 261 265 273 280 285 287 286 285 285 286 289 288 290 292 292 293 296 298 298 306 314 320 323 324 325 326 327 329 330 332 335 336 337 339 339 339 340 339 338
Height
5838 5841 5842 5843 5845 5847 5848 5849 5851 5852 5852 5853 5853 5853 5854 5853 5854 5855 5854 5854 5854 5854 5853 5853 5852 5852 5850 5849 5849 5848 5847 5846 5844 5842 5840 5838 5835 5832 5829 5826 5822 5819 5816 5813
5839 5840 5841 5841 5843 5844 5845 5846 5847 5849 5849 5849 5849 5850 5850 5850 5850 5850 5850 5849 5849 5849 5849 5848 5848 5848 5845 5844 5842 5842 5842 5840 5839 5837 5835 5832 5829 5826 5823 5819 5816 5813 5809 5806
5837 5839 5839 5840 5841 5842 5843 5844 5844 5845 5846 5846 5846 5847 5847 5847 5846 5845 5845 5846 5845 5845 5844 5843 5843 5843 5841 5840 5839 5838 5837 5836 5834 5832 5830 5827 5823 5820 5816 5813 5809 5806 5802 5798
5836 5837 5838 5838 5839 5840 5840 5841 5841 5842 5842 5842 5843 5843 5844 5843 5843 5842 5841 5842 5842 5841 5840 5839 5838 5838 5837 5836 5835 5833 5833 5831 5829 5827 5824 5821 5817 5814 5810 5807 5803 5799 5795 5792
5835 5836 5836 5837 5837 5838 5838 5838 5838 5838 5838 5839 5839 5839 5841 5839 5839 5839 5838 5838 5838 5838 5837 5836 5834 5833 5833 5831 5830 5829 5827 5825 5823 5821 5818 5815 5811 5808 5804 5801 5797 5792 5789 5785
5834 5834 5835 5835 5835 5835 5835 5836 5835 5835 5835 5836 5836 5836 5836 5836 5835 5835 5834 5833 5834 5834 5833 5832 5830 5829 5828 5827 5825 5824 5822 5820 5818 5815 5812 5809 5806 5802 5799 5795 5791 5787 5783 5779
5833 5833 5833 5833 5833 5833 5833 5833 5833 5832 5832 5832 5832 5831 5832 5831 5831 5831 5830 5830 5830 5830 5829 5827 5825 5824 5823 5822 5820 5818 5816 5814 5812 5809 5807 5804 5800 5797 5793 5790 5786 5782 5777 5773
5830 5831 5831 5831 5831 5830 5830 5831 5831 5829 5829 5829 5828 5827 5828 5827 5827 5827 5826 5826 5826 5825 5824 5823 5821 5819 5818 5817 5815 5813 5811 5809 5807 5804 5801 5798 5795 5792 5788 5785 5781 5777 5772 5768
5827 5828 5829 5828 5828 5828 5827 5827 5827 5826 5825 5824 5824 5824 5823 5823 5823 5823 5822 5822 5820 5820 5819 5818 5816 5815 5813 5812 5810 5808 5806 5804 5801 5799 5796 5793 5790 5786 5783 5779 5775 5771 5767 5763
5824 5824 5826 5826 5826 5825 5825 5824 5824 5823 5821 5821 5820 5820 5820 5819 5819 5819 5818 5817 5815 5815 5814 5813 5811 5810 5808 5806 5804 5803 5800 5798 5796 5793 5791 5788 5785 5781 5778 5774 5770 5766 5762 5759
5821 5821 5822 5823 5822 5822 5822 5822 5820 5819 5818 5817 5816 5818 5817 5816 5815 5814 5813 5812 5811 5810 5808 5807 5806 5804 5802 5800 5799 5797 5795 5793 5791 5788 5786 5783 5780 5777 5773 5769 5766 5762 5758 5754
5817 5818 5818 5819 5819 5818 5817 5817 5816 5815 5814 5813 5811 5814 5812 5811 5809 5808 5808 5807 5806 5805 5803 5801 5800 5799 5796 5794 5793 5792 5790 5788 5786 5784 5781 5778 5775 5772 5768 5765 5761 5757 5754 5750
5813 5814 5814 5814 5816 5815 5813 5812 5812 5811 5810 5808 5807 5809 5807 5806 5805 5803 5802 5801 5801 5799 5798 5797 5795 5794 5793 5791 5789 5787 5785 5783 5781 5779 5776 5774 5771 5768 5764 5761 5757 5753 5749 5746
5809 5809 5810 5810 5810 5809 5809 5808 5807 5806 5805 5804 5803 5802 5801 5800 5799 5798 5797 5797 5796 5795 5793 5792 5791 5790 5788 5787 5785 5783 5781 5779 5777 5774 5772 5769 5766 5763 5760 5757 5753 5749 5745 5742
5804 5804 5804 5804 5805 5804 5804 5804 5803 5801 5800 5799 5798 5796 5795 5794 5793 5792 5792 5791 5790 5789 5789 5787 5786 5785 5784 5783 5781 5779 5777 5775 5773 5770 5768 5765 5762 5759 5756 5752 5749 5745 5741 5738
5799 5799 5799 5799 5800 5799 5799 5799 5798 5797 5796 5794 5792 5791 5789 5788 5787 5787 5786 5785 5784 5784 5783 5783 5782 5781 5780 5778 5777 5775 5774 5771 5769 5766 5764 5761 5758 5755 5752 5748 5745 5741 5737 5733
5794 5794 5794 5794 5794 5793 5794 5795 5793 5792 5791 5790 5787 5787 5784 5784 5783 5782 5781 5780 5779 5779 5778 5778 5777 5775 5775 5774 5772 5771 5769 5767 5764 5762 5760 5757 5754 5751 5747 5744 5741 5737 5733 5730
5788 5788 5788 5788 5789 5788 5791 5789 5787 5787 5786 5785 5783 5782 5780 5779 5778 5777 5776 5775 5774 5774 5773 5772 5771 5770 5769 5769 5768 5767 5765 5762 5760 5758 5756 5753 5750 5747 5744 5740 5737 5733 5730 5726
5783 5783 5783 5783 5782 5783 5785 5784 5783 5782 5781 5780 5778 5777 5776 5775 5774 5773 5771 5770 5769 5769 5768 5768 5767 5766 5765 5764 5764 5763 5761 5759 5757 5755 5752 5750 5747 5744 5740 5737 5733 5730 5726 5722
5778 5778 5779 5778 5777 5778 5781 5779 5777 5778 5777 5776 5773 5772 5771 5770 5769 5769 5767 5765 5764 5764 5763 5763 5763 5762 5761 5761 5760 5759 5757 5756 5754 5752 5749 5746 5744 5740 5737 5734 5730 5727 5724 5720
5773 5773 5773 5773 5773 5774 5774 5773 5773 5773 5773 5771 5769 5767 5766 5765 5765 5764 5762 5761 5760 5759 5759 5758 5758 5758 5758 5758 5757 5756 5754 5752 5750 5748 5746 5743 5740 5737 5734 5731 5728 5725 5721 5717
5767 5768 5768 5769 5769 5771 5769 5769 5769 5768 5766 5765 5763 5762 5761 5760 5759 5758 5757 5756 5756 5755 5754 5754 5754 5754 5754 5754 5753 5752 5751 5749 5747 5745 5743 5740 5737 5735 5732 5728 5725 5722 5719 5716
5761 5763 5763 5765 5766 5765 5765 5764 5764 5763 5761 5760 5758 5757 5756 5756 5755 5754 5753 5753 5752 5752 5751 5751 5751 5751 5751 5751 5750 5749 5748 5746 5744 5742 5740 5737 5735 5732 5729 5726 5723 5720 5717 5714
5757 5757 5758 5760 5761 5761 5760 5759 5759 5758 5757 5755 5754 5753 5752 5751 5751 5750 5750 5749 5749 5749 5748 5748 5748 5748 5748 5747 5747 5746 5745 5743 5742 5740 5738 5735 5733 5730 5727 5724 5721 5718 5715 5712
5751 5752 5753 5754 5755 5756 5756 5755 5755 5754 5753 5752 5751 5750 5749 5748 5748 5748 5747 5747 5747 5747 5747 5746 5746 5745 5745 5745 5744 5743 5742 5741 5740 5738 5735 5733 5730 5728 5725 5722 5719 5716 5713 5710
5747 5747 5748 5749 5751 5751 5751 5751 5750 5750 5749 5748 5748 5748 5747 5746 5746 5746 5745 5745 5745 5745 5745 5745 5744 5744 5743 5743 5742 5741 5740 5739 5737 5736 5733 5731 5729 5726 5723 5720 5717 5714 5711 5708